Regional Weather Roundup
Issued by NWS

Current Version | Previous Version | Text Only | Print | Product List | Glossary Off
Versions: 1 2 3 4 5 6 7 8 9 10 11 12 13 14 15 16 17 18 19 20 21 22 23 24 25 26 27 28 29 30 31 32 33 34 35 36 37 38 39 40 41 42 43 44 45 46 47 48 49 50

000
ASUS44 KBMX 012010
RWRAL

ALABAMA REGIONAL WEATHER ROUNDUP
NATIONAL WEATHER SERVICE BIRMINGHAM AL
300 PM CDT SAT OCT 01 2016

NOTE: "FAIR" INDICATES FEW OR NO CLOUDS BELOW 12,000 FEET
WITH NO SIGNIFICANT WEATHER AND/OR OBSTRUCTIONS TO VISIBILITY.

THE REMARK "TC" DENOTES TEMPERATURE IN DEGREES CELSIUS.

ALZ001>011-014-016>018-020-012100-
NORTH ALABAMA

CITY           SKY/WX    TMP DP  RH WIND       PRES   REMARKS
MUSCLE SHOALS  CLOUDY    77  51  40 W10       30.05F
HUNTSVILLE     PTSUNNY   80  51  36 W12G17    30.04F
DECATUR        SUNNY     75  52  44 W7        30.05F
HALEYVILLE     CLOUDY    73  53  49 VRB5      30.08F
GADSDEN        PTSUNNY   81  53  37 CALM      30.03F
$$

ALZ012-013-022-023-030>036-040>044-012100-
WEST CENTRAL ALABAMA

CITY           SKY/WX    TMP DP  RH WIND       PRES   REMARKS
TUSCALOOSA     MOSUNNY   79  50  36 VRB6      30.03F
$$

ALZ015-024>027-033>036-040>044-012100-
CENTRAL ALABAMA

CITY           SKY/WX    TMP DP  RH WIND       PRES   REMARKS
BIRMINGHAM     MOSUNNY   80  50  34 W3        30.06F
MONTGOMERY     SUNNY     84  49  29 W6        30.03F
SHELBY CO ARPT CLOUDY    82  50  32 N8        30.03F
MAXWELL AFB    PTSUNNY   82  51  34 S7        30.02F
GREENVILLE     FAIR      84  50  30 CALM      30.03F
$$

ALZ019-021-028-029-037-038-045>048-012100-
EAST CENTRAL ALABAMA

CITY           SKY/WX    TMP DP  RH WIND       PRES   REMARKS
ANNISTON       MOSUNNY   80  47  31 SW10      30.04F
ALEXANDER CITY SUNNY     80  58  46 CALM      30.04F
AUBURN         SUNNY     80  49  33 NW8       30.05F
$$

ALZ051>064-012100-
SOUTHWEST ALABAMA

CITY           SKY/WX    TMP DP  RH WIND       PRES   REMARKS
MOBILE         PTSUNNY   82  56  40 NW5       30.03F
BROOKLEY FIELD MOSUNNY   81  58  45 E7        30.03F
EVERGREEN      MOSUNNY   80  56  43 CALM      30.04F
$$

ALZ049-050-065>069-012100-
SOUTHEAST ALABAMA

CITY           SKY/WX    TMP DP  RH WIND       PRES   REMARKS
DOTHAN         SUNNY     82  50  32 N7        30.06F
OZARK          SUNNY     81  54  39 NW9       30.01F
TROY           SUNNY     82  50  32 N6        30.04F
EUFAULA        FAIR      86  48  26 VRB6      30.01F
$$



USA.gov is the U.S. government's official web portal to all federal, state and local government web resources and services.